Location: Hilton Head Island
(32.2163°N, 80.7526°W)
Time: 23:03:37
(UTC-05:00)

Vanguard 1 - Pass Details

Date: 18 February 2026
Orbit: 653 x 3818 km, 34.2° (Epoch: 5 March)

Event Time Altitude Azimuth Distance (km) Brightness Sun altitude
Rises 12:21:21 0° 188° (S) 3,565 13.7 46.2°
Reaches altitude 10° 12:24:36 10° 167° (SSE) 2,968 13.5 46.2°
Maximum altitude 12:29:07 17° 128° (SE) 2,978 13.2 46.3°
Drops below altitude 10° 12:35:14 10° 92° (E) 4,235 13.5 46.3°
Sets 12:41:24 0° 76° (ENE) 5,941 14.0 46.3°
